Regional Weather Roundup
Issued by NWS Northern Indiana

Home | Current Version | Previous Version | Text Only | Print | Product List | Glossary On
Versions: 1 2 3 4 5 6 7 8 9 10 11 12 13 14 15 16 17 18 19 20 21 22 23 24 25 26 27 28 29 30 31 32 33 34 35 36 37 38 39 40 41 42 43 44 45 46 47 48 49 50
000
ASUS43 KIWX 292310
RWRIWX

KIWX WEATHER ROUNDUP
NATIONAL WEATHER SERVICE NORTHERN INDIANA
700 PM EDT FRI APR 29 2016

NOTE: "FAIR" INDICATES FEW OR NO CLOUDS BELOW 12,000 FEET WITH NO
SIGNIFICANT WEATHER AND/OR OBSTRUCTIONS TO VISIBILITY.

* THESE STATIONS ARE NOT UNDER NWS QUALITY CONTROL. THEY ALSO MAY NOT
  REPORT WEATHER SUCH AS PRECIPITATION OR FOG.

INZ001>027-300000-
NORTHERN INDIANA

CITY           SKY/WX    TMP DP  RH WIND       PRES   REMARKS
GARY*          CLOUDY    45  45 100 N8        30.14R FOG
VALPARAISO     CLOUDY    46  41  82 N5        30.11S
MICHIGAN CITY* CLOUDY    45  45 100 N6        30.12S
LAPORTE*       CLOUDY    48  46  92 N7        30.11S
KNOX*          CLOUDY    48  37  66 N6        30.09F
SOUTH BEND     CLOUDY    48  44  86 N8        30.11S
ELKHART*       CLOUDY    52  46  82 CALM      30.10S
GOSHEN         CLOUDY    52  44  74 NE7       30.09S
MONTICELLO*    CLOUDY    54  43  66 NE6       30.06F
LOGANSPORT*    CLOUDY    54  45  71 N3        30.08F
ROCHESTER*     CLOUDY    55  46  71 N5        30.08F
WARSAW*        CLOUDY    52  45  76 NE6       30.09S
ANGOLA*        CLOUDY    54  45  71 NW3       30.09S
FORT WAYNE     CLOUDY    53  45  74 N6        30.10R
HUNTINGTON*    CLOUDY   N/A N/A N/A NE7       30.07F
PERU/GRISSOM   CLOUDY    56  47  72 NW6       30.06S
MARION*        CLOUDY    57  46  68 N8        30.08S

$$
INZ028>050-300000-
CENTRAL INDIANA

CITY           SKY/WX    TMP DP  RH WIND       PRES   REMARKS
LAFAYETTE      PTSUNNY   56  47  71 N10       30.05F
KOKOMO*        CLOUDY    57  45  62 N9        30.06F
MUNCIE*        CLOUDY    60  47  61 N9        30.06S
INDIANAPOLIS   CLOUDY    63  46  54 N3        30.02S

$$
MIZ043>046-050>051-056>058-064>065-071>073-077>080-300000-
SOUTHWEST LOWER MICHIGAN

CITY           SKY/WX    TMP DP  RH WIND       PRES   REMARKS
BATTLE CREEK   CLOUDY    51  40  65 NE8       30.12R
BENTON HARBOR  CLOUDY    46  40  79 VRB3      30.12S
COLDWATER*     CLOUDY    53  42  66 N3        30.10R
HILLSDALE*     CLOUDY    52  39  60 CALM      30.10R
HOLLAND        CLOUDY    48  42  80 W6        30.14R
GRAND RAPIDS   CLOUDY    51  39  63 SE7       30.13R
KALAMAZOO      CLOUDY    53  40  61 CALM      30.12R
STURGIS*       CLOUDY    51  44  76 NW5       30.10S
THREE RIVERS*  CLOUDY    53  44  72 CALM      30.11S

$$
OHZ001>008-015>018-024>025-300000-
NORTHWEST OHIO

CITY           SKY/WX    TMP DP  RH WIND       PRES   REMARKS
WAUSEON*         N/A     52 N/A N/A E12       30.11R
DEFIANCE       CLOUDY    57  42  57 CALM      30.10R
FINDLAY        CLOUDY    51  39  63 NE10      30.09R
TOLEDO EXPRESS CLOUDY    49  39  68 E7        30.11R
TOLEDO METCALF CLOUDY    48  39  71 NE7       30.13R
LIMA           CLOUDY    52  46  80 N6        30.08S

$$
AND FOR LAKE MICHIGAN COASTAL AND OPEN LAKE BUOY OBSERVATIONS

STATION/POSITION TEMP    WIND        PRES    VSBY  WAVE
                 AIR SEA DIR/SP/G                  HT/PER
                 (F)     (DEG/KT/KT) (MB)    (MI)  (FT/S)
CALUMET HARBOR    43                 1019.4R
MICHIGAN CITY     42     360/ 14/ 14   N/A
BURNS HARBOR      42      30/  7/ 13 1020.7R
SAINT JOSEPH      45     350/ 10/ 12 1020.0F
SOUTH LAKE BUOY   40 40   10/  8/ 10 1020.7R         1/ 4
4 MI NW BRIDGMAN  42 46                N/A           2/ 3

$$
&&



USA.gov is the U.S. government's official web portal to all federal, state and local government web resources and services.